{"data":{"norad_id":46348,"epoch":"2026-05-25T03:36:41.935968Z","epoch_age_seconds":61259,"freshness":"FRESH","line1":"1 46348U 20062Z   26145.15048537  .00027527  00000+0  67533-3 0  9995","line2":"2 46348  53.0368 306.1703 0002849  60.6075 299.5213 15.40519884317062","mean_motion":15.40519884,"eccentricity":0.0002849,"inclination_deg":53.0368,"raan_deg":306.1703,"arg_perigee_deg":60.6075,"mean_anomaly_deg":299.5213,"bstar":0.00067533,"rev_number":31706,"period_min":93.474937581526,"perigee_km":442.63010829774,"apogee_km":446.51768896778,"semimajor_km":6822.7108986328,"source":"CELESTRAK","updated_at":"2026-05-25T13:38:16.472004Z"}}